• In Hungary
  • List of Countries
  • For 7 days
  • Water Temperature
  • Satellite Maps
  • Weather Map
  • News
  • Weather Widgets
  • user-avatar
    Login

    Hourly Weather Horodnytsya

    Today, 19 February, Monday

    Time Temperature Precipitation Wind Pressure Humidity
    00:00 -5°C° 0 mm 3 mps 749 mmHg 94%
    01:00 -6°C° 0 mm 3 mps 749 mmHg 94%
    02:00 -6°C° 0 mm 3 mps 749 mmHg 94%
    03:00 -7°C° 0 mm 3 mps 749 mmHg 94%
    04:00 -7°C° 0 mm 3 mps 749 mmHg 93%
    05:00 -8°C° 0 mm 3 mps 749 mmHg 93%
    06:00 -8°C° 0 mm 3 mps 749 mmHg 93%
    07:00 -9°C° 0 mm 3 mps 749 mmHg 93%
    08:00 -9°C° 0 mm 3 mps 750 mmHg 93%
    09:00 -8°C° 0 mm 3 mps 750 mmHg 91%
    10:00 -7°C° 0 mm 3 mps 750 mmHg 88%
    11:00 -7°C° 0 mm 4 mps 750 mmHg 86%
    12:00 -5°C° 0 mm 3 mps 750 mmHg 84%
    13:00 -5°C° 0 mm 3 mps 750 mmHg 83%
    14:00 -4°C° 0 mm 3 mps 750 mmHg 82%
    15:00 -4°C° 0 mm 2 mps 750 mmHg 84%
    16:00 -4°C° 0 mm 2 mps 750 mmHg 86%
    17:00 -3°C° 0 mm 1 mps 750 mmHg 88%
    18:00 -4°C° 0 mm 1 mps 750 mmHg 88%
    19:00 -4°C° 0 mm 1 mps 750 mmHg 89%
    20:00 -6°C° 0 mm 1 mps 750 mmHg 90%
    21:00 -6°C° 0 mm 1 mps 750 mmHg 89%
    22:00 -7°C° 0 mm 1 mps 750 mmHg 89%
    23:00 -7°C° 0 mm 1 mps 750 mmHg 89%

    Tomorrow, 20 February, Tuesday

    Time Temperature Precipitation Wind Pressure Humidity
    00:00 -7°C° 0 mm 1 mps 750 mmHg 89%
    01:00 -7°C° 0 mm 1 mps 750 mmHg 88%
    02:00 -7°C° 0 mm 1 mps 750 mmHg 88%
    03:00 -7°C° 0 mm 1 mps 750 mmHg 88%
    04:00 -8°C° 0 mm 1 mps 750 mmHg 87%
    05:00 -8°C° 0 mm 1 mps 750 mmHg 87%
    06:00 -8°C° 0 mm 1 mps 750 mmHg 87%
    07:00 -7°C° 0 mm 1 mps 750 mmHg 87%
    08:00 -7°C° 0 mm 1 mps 750 mmHg 87%
    09:00 -6°C° 0 mm 1 mps 750 mmHg 84%
    10:00 -4°C° 0 mm 1 mps 750 mmHg 81%
    11:00 -2°C° 0 mm 1 mps 750 mmHg 78%
    12:00 -2°C° 0 mm 1 mps 750 mmHg 78%
    13:00 -1°C° 0 mm 1 mps 750 mmHg 77%
    14:00 -1°C° 0 mm 1 mps 749 mmHg 76%
    15:00 -1°C° 0 mm 1 mps 749 mmHg 79%
    16:00 -2°C° 0 mm 1 mps 749 mmHg 82%
    17:00 -3°C° 0 mm 1 mps 749 mmHg 86%
    18:00 -3°C° 0 mm 1 mps 749 mmHg 87%
    19:00 -6°C° 0 mm 2 mps 749 mmHg 88%
    20:00 -7°C° 0 mm 2 mps 749 mmHg 89%
    21:00 -7°C° 0 mm 2 mps 749 mmHg 90%
    22:00 -7°C° 0 mm 2 mps 749 mmHg 90%
    23:00 -8°C° 0 mm 2 mps 749 mmHg 91%

    Day after tomorrow, 21 February, Wednesday

    Time Temperature Precipitation Wind Pressure Humidity
    00:00 -8°C° 0 mm 2 mps 749 mmHg 92%
    01:00 -8°C° 0 mm 2 mps 749 mmHg 93%
    02:00 -8°C° 0 mm 2 mps 749 mmHg 93%
    03:00 -8°C° 0 mm 2 mps 749 mmHg 93%
    04:00 -8°C° 0 mm 2 mps 749 mmHg 94%
    05:00 -8°C° 0 mm 2 mps 748 mmHg 94%
    06:00 -8°C° 0 mm 2 mps 749 mmHg 93%
    07:00 -8°C° 0 mm 2 mps 749 mmHg 93%
    08:00 -7°C° 0 mm 2 mps 749 mmHg 92%
    09:00 -6°C° 0 mm 2 mps 749 mmHg 91%
    10:00 -6°C° 0 mm 3 mps 749 mmHg 89%
    11:00 -5°C° 0 mm 3 mps 749 mmHg 88%
    12:00 -5°C° 0 mm 3 mps 748 mmHg 86%
    13:00 -4°C° 0 mm 3 mps 748 mmHg 85%
    14:00 -4°C° 0 mm 3 mps 748 mmHg 84%
    15:00 -4°C° 0 mm 3 mps 748 mmHg 86%
    16:00 -5°C° 0 mm 3 mps 748 mmHg 88%
    17:00 -5°C° 0 mm 3 mps 747 mmHg 90%
    18:00 -6°C° 0 mm 3 mps 747 mmHg 91%
    19:00 -6°C° 0 mm 3 mps 748 mmHg 92%
    20:00 -6°C° 0 mm 3 mps 748 mmHg 93%
    21:00 -7°C° 0 mm 3 mps 748 mmHg 93%
    22:00 -7°C° 0 mm 3 mps 748 mmHg 93%
    23:00 -8°C° 0 mm 3 mps 748 mmHg 92%

    22 February, Thursday

    Time Temperature Precipitation Wind Pressure Humidity
    00:00 -8°C° 0 mm 3 mps 748 mmHg 92%
    01:00 -8°C° 0 mm 3 mps 748 mmHg 93%
    02:00 -8°C° 0 mm 3 mps 748 mmHg 93%
    03:00 -8°C° 0 mm 3 mps 748 mmHg 93%
    04:00 -9°C° 0 mm 3 mps 748 mmHg 93%
    05:00 -9°C° 0 mm 3 mps 748 mmHg 93%
    06:00 -9°C° 0 mm 3 mps 748 mmHg 92%
    07:00 -9°C° 0 mm 3 mps 748 mmHg 92%
    08:00 -9°C° 0 mm 3 mps 748 mmHg 91%
    09:00 -8°C° 0 mm 3 mps 748 mmHg 89%
    10:00 -7°C° 0 mm 3 mps 748 mmHg 88%
    11:00 -6°C° 0 mm 3 mps 748 mmHg 86%
    12:00 -6°C° 0 mm 3 mps 748 mmHg 85%
    13:00 -5°C° 0 mm 3 mps 748 mmHg 85%
    14:00 -5°C° 0 mm 3 mps 747 mmHg 84%
    15:00 -5°C° 0 mm 3 mps 747 mmHg 86%
    16:00 -5°C° 0 mm 3 mps 747 mmHg 88%
    17:00 -6°C° 0 mm 3 mps 747 mmHg 90%
    18:00 -6°C° 0 mm 3 mps 747 mmHg 90%
    19:00 -6°C° 0 mm 3 mps 747 mmHg 90%
    20:00 -6°C° 0 mm 3 mps 747 mmHg 90%
    21:00 -6°C° 0 mm 3 mps 747 mmHg 89%
    22:00 -7°C° 0 mm 3 mps 747 mmHg 88%
    23:00 -7°C° 0 mm 3 mps 747 mmHg 88%

    23 February, Friday

    Time Temperature Precipitation Wind Pressure Humidity
    00:00 -7°C° 0 mm 3 mps 747 mmHg 88%
    01:00 -6°C° 0 mm 2 mps 747 mmHg 87%
    02:00 -6°C° 0 mm 2 mps 746 mmHg 87%
    03:00 -6°C° 0 mm 2 mps 746 mmHg 88%
    04:00 -6°C° 0 mm 2 mps 746 mmHg 88%
    05:00 -6°C° 0 mm 2 mps 746 mmHg 88%
    06:00 -6°C° 0 mm 2 mps 745 mmHg 89%
    07:00 -6°C° 0 mm 2 mps 745 mmHg 89%
    08:00 -6°C° 0 mm 2 mps 745 mmHg 89%
    09:00 -5°C° 0 mm 2 mps 745 mmHg 87%
    10:00 -4°C° 0 mm 2 mps 745 mmHg 85%
    11:00 -4°C° 0 mm 2 mps 745 mmHg 82%
    12:00 -3°C° 0 mm 2 mps 745 mmHg 82%
    13:00 -3°C° 0 mm 2 mps 744 mmHg 82%
    14:00 -2°C° 0 mm 2 mps 744 mmHg 82%
    15:00 -1°C° 0.1 mm 1 mps 744 mmHg 85%
    16:00 -1°C° 0.1 mm 1 mps 743 mmHg 88%
    17:00 -1°C° 0.1 mm 1 mps 743 mmHg 91%
    18:00 -1°C° 0.3 mm 1 mps 743 mmHg 93%
    19:00 -1°C° 0.3 mm 1 mps 742 mmHg 95%
    20:00 -2°C° 0.3 mm 1 mps 742 mmHg 97%
    21:00 -2°C° 0.5 mm 1 mps 742 mmHg 97%
    22:00 -2°C° 0.5 mm 1 mps 742 mmHg 97%
    23:00 -3°C° 0.5 mm 0 mps 742 mmHg 97%

    24 February, Saturday

    Time Temperature Precipitation Wind Pressure Humidity
    00:00 -2°C° 0.6 mm 1 mps 741 mmHg 97%
    01:00 -2°C° 0.6 mm 1 mps 741 mmHg 97%
    02:00 -4°C° 0.6 mm 2 mps 741 mmHg 97%
    03:00 -5°C° 0.7 mm 2 mps 740 mmHg 97%
    04:00 -6°C° 0.7 mm 3 mps 740 mmHg 96%
    05:00 -7°C° 0.7 mm 4 mps 740 mmHg 96%
    06:00 -8°C° 0.7 mm 5 mps 740 mmHg 95%
    07:00 -10°C° 0.7 mm 6 mps 740 mmHg 94%
    08:00 -11°C° 0.7 mm 6 mps 740 mmHg 94%
    09:00 -12°C° 0.5 mm 7 mps 740 mmHg 93%
    10:00 -13°C° 0.5 mm 7 mps 740 mmHg 92%
    11:00 -14°C° 0.5 mm 7 mps 740 mmHg 92%
    12:00 -14°C° 0.3 mm 7 mps 740 mmHg 91%
    13:00 -14°C° 0.3 mm 7 mps 740 mmHg 90%
    14:00 -14°C° 0.3 mm 7 mps 740 mmHg 89%
    15:00 -15°C° 0.1 mm 7 mps 740 mmHg 88%
    16:00 -15°C° 0.1 mm 7 mps 740 mmHg 88%
    17:00 -16°C° 0.1 mm 8 mps 740 mmHg 87%
    18:00 -17°C° 0 mm 7 mps 740 mmHg 87%
    19:00 -18°C° 0 mm 7 mps 740 mmHg 87%
    20:00 -18°C° 0 mm 7 mps 740 mmHg 87%
    21:00 -19°C° 0 mm 7 mps 740 mmHg 87%
    22:00 -20°C° 0 mm 7 mps 740 mmHg 88%
    23:00 -20°C° 0 mm 7 mps 740 mmHg 88%
    Show more